Погода в Олайне

Латвия     56°47′14″N   23°56′31″E
темп.,
°C
ветер,
м/с
пор.,
м/с
влажн.,
%
обл.,
%
осадки,
мм/ч
давл.,
гПа
погр.,
м
31 июля, сб
сб3100:00+18зюз61473100 0.5 10001331
03:00+17зюз61283100 0.9 10001044
06:00+17юз5128737 0.1 1000598
09:00+20зюз6106931 0.1 10021089
12:00+21з61060100 0.1 10041457
15:00+25зюз694373 0.1 10032174
18:00+25юз474698 0.0 10031777
21:00+19ююз247598 0.5 100369
1 августа, вс
вс100:00+16ююз389829 4.1 1004216
03:00+15ююз28985 4.6 1004206
06:00+14ююз210973 0.0 1003243
09:00+18ююз512825 0.0 1003942
12:00+23зюз695530 0.1 10031620
15:00+25зюз6840100 0.4 10042281
18:00+23юз5747100 0.0 10051796
21:00+17юз3885100 0.4 1006256
2 августа, пн
пн200:00+15юз249782 0.0 100684
03:00+14ю1196100 0.0 100612
06:00+14ю2396100 0.0 100582
09:00+18ююз2379100 0.0 1004371
12:00+21зюз3463100 0.3 10031194
15:00+22зсз5651100 0.4 10031602
18:00+22з474399 0.1 10031426
21:00+18з410545 0.1 1004561
3 августа, вт
вт300:00+13юз27780 0.0 1005150
03:00+12юз38885 0.0 1005191
06:00+11юз269922 0.0 1006141
09:00+17зсз35683 0.0 1007646
12:00+20сз4552100 0.1 10081740
15:00+21ссз665047 0.2 10091493
18:00+20ссз45460 0.0 10101360
21:00+15с236589 0.0 101253
4 августа, ср
ср400:00+12ю00735 0.0 101310
03:00+11юз11777 0.0 101410
06:00+11юв11808 0.0 101411
09:00+17юв245635 0.0 1014398
12:00+20юв344423 0.0 10141119
15:00+24юв3439100 0.0 10132361
18:00+23юв3545100 0.0 1012902
21:00+17юв1272100 0.1 101243